www.pogodaiklimat.ru

Погода и климат >> Архив погоды >> Индия >> Karwar


ПОГОДА в Karwar

  • Прогноз погоды в Karwar
  • Монитор погоды в Karwar
  • Климат города

АРХИВ ПОГОДЫ в Karwar

Время (UTC), дата Ветер
(напр.,м/с)
 
Видим.   Явления Облачность Т
(С)
Тd
(С)
f
(%)
Тe
(С)
Тes
(С)
Комфортность P
(гПа)
Po
(гПа)
Тmin
(С)
Tmax
(С)
R
(мм)
R24
(мм)
S
(см)
09 10.12 штиль 0 10 км ясно +35.4 +24.7 54 +48 +62 опасность
перегрева
1010.7 1010.2
12 10.12 штиль 0 10 км ясно +29.6 +21.9 63 +38 +39 очень
душно
1010.7 1010.2 +35.6
03 11.12 штиль 0 4000 м мгла ясно +23.4 +21.3 88 +31 +35 очень
душно
1013.8 1013.3 +20.9 +35.6
06 11.12 штиль 0 10 км ясно +30.8 +22.6 62 +40 +57 опасность
солнечного
удара
1013.7 1013.2
12 11.12 З 1 10 км 3/0
[Ci fib]
+29.6 +16.5 45 +33 +33 душно 1011.4 1010.9 +34.4
03 12.12 штиль 0 4000 м мгла ясно +21.4 +18.2 82 +26 +29 душно 1015.4 1014.9 +19.3 +34.4
06 12.12 СВ 2 10 км ясно +29.4 +17.1 48 +33 +47 душно 1014.4 1013.9
09 12.12 З 1 10 км ясно +34.8 +20.5 43 +41 +53 опасность
перегрева
1011.6 1011.1
12 12.12 штиль 0 10 км ясно +29.6 +19.5 55 +36 +36 очень
душно
1011.7 1011.2 +34.6
03 13.12 штиль 0 4000 м мгла ясно +20.2 +17.6 85 +23 +26 комфорт 1016.1 1015.6 +18.9 +34.6
06 13.12 З 1 10 км ясно +30.2 +20.9 58 +38 +52 опасность
солнечного
удара
1014.9 1014.4
09 13.12 З 1 10 км ясно +34.0 +19.5 43 +40 +52 опасность
солнечного
удара
1011.7 1011.2
12 13.12 штиль 0 10 км ясно +29.6 +17.7 49 +34 +35 очень
душно
1011.6 1011.1 +34.6
03 14.12 штиль 0 4000 м мгла ясно +20.6 +14.5 68 +23 +26 комфорт 1014.9 1014.4 +19.5 +34.6
06 14.12 З 1 10 км 5/3 600 м
[Sc diur, vesp Ci sp]
+30.2 +20.6 56 +37 +47 очень
душно
1014.2 1013.7
09 14.12 З 1 10 км ясно +33.0 +19.0 44 +38 +50 очень
душно
1011.6 1011.1
12 14.12 штиль 0 10 км ясно +30.4 +20.8 57 +38 +38 очень
душно
1012.0 1011.5 +33.2
03 15.12 штиль 0 4000 м мгла ясно +23.6 +16.4 64 +27 +30 жарко 1014.6 1014.1 +21.9 +33.2
06 15.12 штиль 0 10 км ясно +30.8 +17.7 46 +35 +52 опасность
солнечного
удара
1013.7 1013.2
09 15.12 ЮВ 1 10 км ясно +34.6 +18.4 38 +39 +51 опасность
солнечного
удара
1010.6 1010.1
12 15.12 штиль 0 10 км ясно +31.8 +18.6 46 +37 +37 очень
душно
1011.0 1010.5 +34.8
03 16.12 штиль 0 4000 м мгла ясно +24.2 +13.6 52 +26 +30 жарко 1015.4 1014.9 +21.9 +34.8
06 16.12 ЮВ 2 10 км 3/0
[Ci fib]
+31.2 +16.2 40 +34 +47 душно 1014.3 1013.8
09 16.12 ЮВ 2 10 км 8/0
[Ci sp]
+32.6 +16.5 38 +36 +44 очень
душно
1011.2 1010.7
12 16.12 ЮВ 1 10 км 5/0
[Ci sp]
+30.6 +17.0 44 +34 +35 очень
душно
1011.2 1010.7 +32.8
03 17.12 СВ 1 4000 м мгла ясно +20.6 +9.4 49 +23 +26 комфорт 1014.9 1014.4 +18.3 +32.8
06 17.12 штиль 0 10 км 5/0
[Ci fib]
+30.6 +12.8 34 +32 +47 жарко 1013.8 1013.3

 

Местоположение метеостанции Karwar (Karnataka, Индия): широта 14.78 долгота 74.13 высота над уровнем моря 4 м.

В архиве по умолчанию представлена погода в Karwar за последнюю неделю. Архивные данные за месяц целиком и за предыдущие месяцы, начиная с января 2011 года, Вы можете получить, выбрав интересующий диапазон дат из раскрывающегося списка и нажав кнопку "Ввод!".


*Определитесь, кто Вы:
робот инопланетянин человек

Внимание! Время в таблицах - всемирное. Для получения местного времени необходимо прибавить поправку, которая в Karwar равна 5.5 ч.

Смотрите также архив погоды в соседних городах и на ближайших метеорологических станциях:

Погода в Honavar (Karnataka, Индия) (65 км)
Погода в Mormugao (Goa, Индия) (80 км)
Погода в Panjim (Goa, Индия) (85 км)
Погода в Shirali (Karnataka, Индия) (90 км)
Погода в Dharwad (Karnataka, Индия) (120 км)
Погода в Belgaum (Karnataka, Индия) (127 км)
Погода в Belgaum Airport (Karnataka, Индия) (130 км)
Погода в Vengurla (Maharashtra, Индия) (133 км)
Погода в Haveri (Karnataka, Индия) (137 км)
Погода в Agumbe Emo (Karnataka, Индия) (175 км)

Пояснения к столбцам:

Ветер - указаны скорость ветра в м/с - средняя за 10 мин, порывы в срок и между сроками (в фигурных скобках) и направление, откуда дует ветер: С - северный, СВ - северо-восточный, В - восточный, ЮВ - юго-восточный, Ю - южный, ЮЗ - юго-западный, З - западный, СЗ - северо-западный.
Видимость - горизонтальная дальность видимости в метрах или километрах. При видимости от 1 до 10 км при отсутствии осадков обычно наблюдается дымка, при ухудшении видимости до 1 км и менее - туман. В сухую погоду видимость может ухудшаться дымом, пылью или мглою.
Явления - указаны атмосферные явления, наблюдавшиеся в срок или в последний час перед сроком; фигурными скобками обозначены явления, наблюдавшиеся между сроками (за 1-3 часа до срока); квадратными скобками обозначены град или гололедные отложения с указанием их диаметра в мм.
Облачность - указаны через наклонную черту общая и нижняя облачность в баллах и высота нижней границы облаков в метрах; квадратными скобками обозначены формы облаков: Ci - перистые, Cs - перисто-слоистые, Cc - перисто-кучевые, Ac - высококучевые, As - высокослоистые, Sc - слоисто-кучевые, Ns - слоисто-дождевые, Cu - кучевые, Cb - кучево-дождевые. Подробнее классификацию облаков см. в Атласе облаков (PDF).
T - Температура воздуха - температура, измеренная на высоте 2 м над землей.
Td - Температура точки росы - температура, при понижении до которой содержащийся в воздухе водяной пар достигнет насыщения.
f - Относительная влажность воздуха - влажноcть воздуха, измеренная на высоте 2 м над землей.
Te - Эффективная температура - температура, которую ощущает одетый по сезону человек в тени. Характеристика душности погоды. При расчете учитывается влияние влажности воздуха и скорости ветра на теплоощущения человека.
Tes - Эффективная температура на солнце - температура, которую ощущает человек, с поправкой на солнечный нагрев. Характеристика знойности погоды. Зависит от высоты солнца над горизонтом, облачности и скорости ветра. Ночью, в пасмурную погоду, а также при ветре 12 м/с и более поправка равна нулю.
P - Атмосферное давление - приведенное к уровню моря атмосферное давление.
Po - Атмосферное давление - измеренное на уровне метеостанции атмосферное давление.
Tmin - Минимальная температура - минимум температуры воздуха на высоте 2 м над землей.
Tmax - Максимальная температура - максимум температуры воздуха на высоте 2 м над землей.
R - Количество осадков - Количество выпавших осадков за период времени, мм. При наведении курсора мыши на число - период времени, за который выпало указанное количество осадков.
R24 - Количество осадков - Количество выпавших осадков за 24 часа, мм.
S - Снежный покров - Высота снежного покрова, см. При наведении курсора мыши на число - состояние снежного покрова и степень покрытия местности в баллах.